Weather History for Erie, PA

Change the Weather History Date:

Wednesday, April 9, 2014

  Actual Average Record
Temperature  
Mean Temperature 39 °F 45 °F  
Max Temperature 46 °F 54 °F 79 °F (1969)
Min Temperature 32 °F 36 °F 17 °F (1958)
Degree Days  
Heating Degree Days 26 20  
Month to date heating degree days 207 198  
Since 1 July heating degree days 6167 5474  
Cooling Degree Days 0 0  
Month to date cooling degree days 0 0  
Year to date cooling degree days 0 1  
Moisture  
Dew Point 30 °F    
Average Humidity 71    
Maximum Humidity 89    
Minimum Humidity 53    
Precipitation  
Precipitation T in 0.12 in 1.20 in (1998)
Month to date precipitation 1.31 1.04  
Year to date precipitation 10.39 9.33  
Snow  
Snow 0.00 in 0.10 in - ()
Month to date snowfall T 1.8  
Since 1 July snowfall 137.2 99.5  
Snow Depth 0.00 in    
Sea Level Pressure  
Sea Level Pressure 29.93 in    
Wind  
Wind Speed 7 mph (WSW)    
Max Wind Speed 18 mph    
Max Gust Speed 21 mph    
Visibility 9 miles    
Events Rain    
T = Trace of Precipitation, MM = Missing Value Source: NWS Daily Summary

Daily Weather History Graph

Daily Weather History Graph

Search for Another Location

Airport:

Trip Planner

Search our weather history database for the weather conditions in past years. The results will help you decide how hot, cold, wet, or windy it might be!

Date:

Astronomy

Apr. 09, 2014 Rise Set
Actual Time 6:49 AM EDT 7:55 PM EDT
Civil Twilight 6:21 AM EDT 8:24 PM EDT
Nautical Twilight 5:47 AM EDT 8:58 PM EDT
Astronomical Twilight 5:11 AM EDT 9:34 PM EDT
Moon 2:37 PM EDT (4/9) 3:43 AM EDT (4/9)
Length of Visible Light 14h 02m
Length of Day
13h 05m
Waxing Gibbous, 71% of the Moon is Illuminated
Apr 9
Waxing Gibbous
Apr 15
Full
Apr 22
Last Quarter
Apr 29
New
May 6
First Quarter

Hourly Weather History & Observations

Time (EDT) Temp. Windchill Dew Point Humidity Pressure Visibility Wind Dir Wind Speed Gust Speed Precip Events Conditions
12:51 AM 39.0 °F 36.8 °F 30.0 °F 70% 29.78 in 10.0 mi West 3.5 mph - N/A   Scattered Clouds
1:51 AM 37.9 °F 34.4 °F 30.9 °F 76% 29.78 in 10.0 mi South 4.6 mph - N/A   Overcast
2:51 AM 37.9 °F - 33.1 °F 83% 29.77 in 9.0 mi Calm Calm - 0.00 in Rain Light Rain
3:51 AM 35.1 °F - 32.0 °F 89% 29.79 in 8.0 mi Calm Calm - 0.00 in   Partly Cloudy
4:51 AM 33.1 °F 30.0 °F 30.9 °F 92% 29.79 in 6.0 mi SSW 3.5 mph - N/A   Partly Cloudy
5:51 AM 34.0 °F 29.8 °F 30.9 °F 89% 29.82 in 8.0 mi SSW 4.6 mph - N/A   Mostly Cloudy
6:51 AM 33.1 °F - 30.0 °F 89% 29.86 in 5.0 mi Calm Calm - N/A   Scattered Clouds
7:51 AM 34.0 °F 31.0 °F 30.9 °F 89% 29.88 in 4.0 mi SW 3.5 mph - N/A   Clear
8:51 AM 37.9 °F 32.7 °F 30.9 °F 76% 29.91 in 10.0 mi West 6.9 mph - N/A   Clear
9:51 AM 39.0 °F 34.0 °F 30.9 °F 73% 29.94 in 10.0 mi West 6.9 mph - N/A   Clear
10:51 AM 39.9 °F 33.9 °F 30.0 °F 68% 29.96 in 10.0 mi WNW 9.2 mph - N/A   Clear
11:51 AM 39.0 °F 30.6 °F 30.0 °F 70% 29.97 in 10.0 mi West 15.0 mph - N/A   Clear
12:51 PM 39.9 °F 32.1 °F 30.0 °F 68% 29.99 in 10.0 mi WNW 13.8 mph - N/A   Clear
1:51 PM 41.0 °F 34.3 °F 30.0 °F 65% 30.00 in 10.0 mi West 11.5 mph 19.6 mph N/A   Clear
2:51 PM 41.0 °F 33.5 °F 30.0 °F 65% 30.00 in 10.0 mi West 13.8 mph - N/A   Clear
3:51 PM 43.0 °F 36.8 °F 30.9 °F 62% 30.00 in 10.0 mi West 11.5 mph - N/A   Clear
4:51 PM 45.0 °F 41.2 °F 30.9 °F 58% 30.00 in 10.0 mi West 6.9 mph - N/A   Clear
5:51 PM 44.6 °F 38.8 °F 30.2 °F 57% 29.99 in 10.0 mi West 11.5 mph - N/A   Clear
6:51 PM 44.1 °F 40.1 °F 28.0 °F 53% 30.01 in 10.0 mi West 6.9 mph - N/A   Clear
7:51 PM 42.1 °F 40.2 °F 28.0 °F 58% 30.02 in 10.0 mi West 3.5 mph - N/A   Clear
8:51 PM 41.0 °F 39.0 °F 30.0 °F 65% 30.03 in 10.0 mi SSW 3.5 mph - N/A   Clear
9:51 PM 39.0 °F 34.8 °F 26.1 °F 60% 30.04 in 10.0 mi SSE 5.8 mph - N/A   Clear
10:51 PM 39.0 °F 34.0 °F 24.1 °F 55% 30.03 in 10.0 mi South 6.9 mph - N/A   Clear
11:51 PM 39.9 °F 33.9 °F 24.1 °F 53% 30.01 in 10.0 mi South 9.2 mph - N/A   Clear